Location: *
(34.8620°S, 39.3380°E)
Time: 23:22:21
(UTC+00:00)

Cosmos 2297 - Pass Details

Date: 27 July 2021
Orbit: 835 x 859 km, 71.0° (Epoch: 20 September)

Event Time Altitude Azimuth Distance (km) Brightness Sun altitude
Exits shadow 02:06:31 66° 186° (S) 928 3.7 -27.5°
Maximum altitude 02:07:21 84° 111° (ESE) 859 3.6 -27.3°
Drops below altitude 10° 02:13:00 10° 22° (NNE) 2,451 6.4 -26.2°
Sets 02:15:25 0° 21° (NNE) 3,375 7.2 -25.7°
